Weather History for Delaware, OH

Change the Weather History Date:

Saturday, January 19, 2013

  Actual Average Record
Temperature  
Mean Temperature 41 °F -  
Max Temperature 50 °F 33 °F 66 °F (1986)
Min Temperature 32 °F 15 °F -14 °F (1940)
Degree Days  
Heating Degree Days 24    
Moisture  
Dew Point 26 °F    
Average Humidity 58    
Maximum Humidity 69    
Minimum Humidity 40    
Precipitation  
Precipitation 0.00 in - - ()
Sea Level Pressure  
Sea Level Pressure 30.02 in    
Wind  
Wind Speed 16 mph (SSW)    
Max Wind Speed 22 mph    
Max Gust Speed 30 mph    
Visibility 10 miles    
Events      
Averages and records for this station are not official NWS values.
T = Trace of Precipitation, MM = Missing Value Source: NWS Daily Summary

Daily Weather History Graph

Daily Weather History Graph

Search for Another Location

Airport:

Trip Planner

Search our weather history database for the weather conditions in past years. The results will help you decide how hot, cold, wet, or windy it might be!

Date:

Astronomy

Jan. 19, 2013 Rise Set
Actual Time 7:51 AM EST 5:35 PM EST
Civil Twilight 7:21 AM EST 6:05 PM EST
Nautical Twilight 6:48 AM EST 6:38 PM EST
Astronomical Twilight 6:15 AM EST 7:11 PM EST
Moon 12:01 PM EST 1:24 AM EST
Length of Visible Light 10h 43m
Length of Day
9h 44m
First Quarter, 57% of the Moon is Illuminated
Jan 19
First Quarter
Jan 26
Full
Feb 3
Last Quarter
Feb 10
New
Feb 17
First Quarter

Hourly Weather History & Observations

Time (EST) Temp. Windchill Dew Point Humidity Pressure Visibility Wind Dir Wind Speed Gust Speed Precip Events Conditions
12:03 AM 32.0 °F 20.5 °F 23.0 °F 69% 30.17 in 10.0 mi SSW 18.4 mph 24.2 mph N/A   Clear
12:23 AM 32.0 °F 21.6 °F 23.0 °F 69% 30.16 in 10.0 mi SSW 15.0 mph - N/A   Clear
12:42 AM 32.0 °F 20.8 °F 23.0 °F 69% 30.16 in 10.0 mi SSW 17.3 mph 20.7 mph N/A   Clear
1:03 AM 32.0 °F 21.6 °F 23.0 °F 69% 30.16 in 10.0 mi SSW 15.0 mph 21.9 mph N/A   Clear
1:23 AM 32.0 °F 20.8 °F 23.0 °F 69% 30.15 in 10.0 mi SSW 17.3 mph 23.0 mph N/A   Clear
1:42 AM 33.8 °F 24.8 °F 23.0 °F 65% 30.15 in 10.0 mi SSW 12.7 mph 20.7 mph N/A   Clear
2:03 AM 33.8 °F 23.9 °F 23.0 °F 65% 30.15 in 10.0 mi SSW 15.0 mph 21.9 mph N/A   Clear
2:23 AM 33.8 °F 23.9 °F 23.0 °F 65% 30.15 in 10.0 mi SSW 15.0 mph 21.9 mph N/A   Clear
2:43 AM 33.8 °F 24.8 °F 23.0 °F 65% 30.15 in 10.0 mi SSW 12.7 mph 19.6 mph N/A   Clear
3:03 AM 33.8 °F 25.3 °F 23.0 °F 65% 30.15 in 10.0 mi SW 11.5 mph - N/A   Clear
3:22 AM 33.8 °F 24.3 °F 23.0 °F 65% 30.15 in 10.0 mi SSW 13.8 mph 23.0 mph N/A   Clear
3:43 AM 33.8 °F 24.8 °F 23.0 °F 65% 30.15 in 10.0 mi SSW 12.7 mph 18.4 mph N/A   Clear
4:03 AM 33.8 °F 25.3 °F 23.0 °F 65% 30.14 in 10.0 mi SSW 11.5 mph 17.3 mph N/A   Clear
4:22 AM 33.8 °F 23.9 °F 23.0 °F 65% 30.13 in 10.0 mi SSW 15.0 mph 20.7 mph N/A   Clear
4:43 AM 33.8 °F 24.3 °F 23.0 °F 65% 30.12 in 10.0 mi SSW 13.8 mph - N/A   Clear
5:03 AM 33.8 °F 23.9 °F 23.0 °F 65% 30.12 in 10.0 mi SSW 15.0 mph 18.4 mph N/A   Clear
5:22 AM 33.8 °F 24.8 °F 23.0 °F 65% 30.12 in 10.0 mi SSW 12.7 mph - N/A   Clear
5:43 AM 33.8 °F 24.8 °F 23.0 °F 65% 30.13 in 10.0 mi SSW 12.7 mph 17.3 mph N/A   Clear
6:03 AM 33.8 °F 24.3 °F 23.0 °F 65% 30.12 in 10.0 mi SSW 13.8 mph 18.4 mph N/A   Clear
6:22 AM 33.8 °F 23.2 °F 23.0 °F 65% 30.12 in 10.0 mi SSW 17.3 mph - N/A   Clear
6:43 AM 33.8 °F 25.3 °F 23.0 °F 65% 30.12 in 10.0 mi SSW 11.5 mph 17.3 mph N/A   Clear
7:03 AM 33.8 °F 24.8 °F 23.0 °F 65% 30.12 in 10.0 mi SSW 12.7 mph - N/A   Clear
7:22 AM 33.8 °F 25.3 °F 23.0 °F 65% 30.12 in 10.0 mi SSW 11.5 mph - N/A   Clear
7:43 AM 33.8 °F 24.3 °F 23.0 °F 65% 30.12 in 10.0 mi SSW 13.8 mph 21.9 mph N/A   Clear
8:03 AM 33.8 °F 25.3 °F 23.0 °F 65% 30.12 in 10.0 mi SSW 11.5 mph - N/A   Clear
8:22 AM 33.8 °F 24.3 °F 23.0 °F 65% 30.12 in 10.0 mi SSW 13.8 mph 19.6 mph N/A   Clear
8:43 AM 33.8 °F 23.5 °F 23.0 °F 65% 30.12 in 10.0 mi SSW 16.1 mph 19.6 mph N/A   Clear
9:03 AM 35.6 °F 26.2 °F 23.0 °F 60% 30.12 in 10.0 mi SSW 15.0 mph - N/A   Clear
9:22 AM 35.6 °F 25.9 °F 24.8 °F 65% 30.12 in 10.0 mi SSW 16.1 mph 21.9 mph N/A   Clear
9:43 AM 37.4 °F 28.9 °F 24.8 °F 60% 30.12 in 10.0 mi SSW 13.8 mph 21.9 mph N/A   Clear
10:03 AM 37.4 °F 28.2 °F 24.8 °F 60% 30.12 in 10.0 mi SW 16.1 mph 23.0 mph N/A   Clear
10:23 AM 39.2 °F 30.5 °F 26.6 °F 61% 30.12 in 10.0 mi SSW 16.1 mph - N/A   Clear
10:43 AM 41.0 °F 32.5 °F 26.6 °F 57% 30.12 in 10.0 mi SSW 17.3 mph 24.2 mph N/A   Clear
11:02 AM 41.0 °F 32.8 °F 26.6 °F 57% 30.11 in 10.0 mi SW 16.1 mph 21.9 mph N/A   Clear
11:23 AM 42.8 °F 35.1 °F 26.6 °F 53% 30.10 in 10.0 mi SSW 16.1 mph 24.2 mph N/A   Clear
11:43 AM 42.8 °F 33.8 °F 26.6 °F 53% 30.08 in 10.0 mi SSW 21.9 mph 29.9 mph N/A   Clear
12:02 PM 44.6 °F 37.4 °F 26.6 °F 49% 30.07 in 10.0 mi SW 16.1 mph 25.3 mph N/A   Clear
12:23 PM 44.6 °F 37.2 °F 26.6 °F 49% 30.05 in 10.0 mi SSW 17.3 mph 26.5 mph N/A   Clear
12:43 PM 44.6 °F 36.1 °F 26.6 °F 49% 30.03 in 10.0 mi SSW 21.9 mph 27.6 mph N/A   Clear
1:02 PM 44.6 °F 36.1 °F 26.6 °F 49% 30.02 in 10.0 mi SSW 21.9 mph 28.8 mph N/A   Clear
1:23 PM 46.4 °F 39.8 °F 28.4 °F 50% 30.00 in 10.0 mi SSW 16.1 mph 26.5 mph N/A   Clear
1:43 PM 46.4 °F 39.0 °F 28.4 °F 50% 29.99 in 10.0 mi SSW 19.6 mph 24.2 mph N/A   Clear
2:02 PM 46.4 °F 38.5 °F 28.4 °F 50% 29.98 in 10.0 mi SSW 21.9 mph 28.8 mph N/A   Clear
2:23 PM 48.2 °F - 28.4 °F 46% 29.97 in 10.0 mi SW 19.6 mph 27.6 mph N/A   Clear
3:02 PM 50.0 °F - 28.4 °F 43% 29.94 in 10.0 mi SSW 17.3 mph 27.6 mph N/A   Clear
3:23 PM 50.0 °F - 28.4 °F 43% 29.93 in 10.0 mi SSW 16.1 mph 27.6 mph N/A   Clear
3:43 PM 50.0 °F - 26.6 °F 40% 29.92 in 10.0 mi SSW 18.4 mph 28.8 mph N/A   Clear
4:03 PM 50.0 °F - 26.6 °F 40% 29.91 in 10.0 mi SSW 20.7 mph 28.8 mph N/A   Clear
4:23 PM 50.0 °F - 26.6 °F 40% 29.90 in 10.0 mi SSW 18.4 mph 25.3 mph N/A   Clear
4:43 PM 48.2 °F - 26.6 °F 43% 29.89 in 10.0 mi SSW 16.1 mph 28.8 mph N/A   Clear
5:02 PM 48.2 °F - 26.6 °F 43% 29.89 in 10.0 mi SSW 15.0 mph 27.6 mph N/A   Clear
5:23 PM 46.4 °F 39.5 °F 26.6 °F 46% 29.87 in 10.0 mi SSW 17.3 mph 23.0 mph N/A   Clear
5:43 PM 46.4 °F 39.2 °F 26.6 °F 46% 29.87 in 10.0 mi South 18.4 mph 26.5 mph N/A   Clear
6:03 PM 46.4 °F 39.5 °F 26.6 °F 46% 29.86 in 10.0 mi SSW 17.3 mph 26.5 mph N/A   Clear
6:23 PM 46.4 °F 39.0 °F 26.6 °F 46% 29.85 in 10.0 mi SSW 19.6 mph 26.5 mph N/A   Clear
6:43 PM 46.4 °F 39.0 °F 26.6 °F 46% 29.87 in 10.0 mi SSW 19.6 mph 28.8 mph N/A   Clear
7:03 PM 44.6 °F 37.8 °F 28.4 °F 53% 29.88 in 10.0 mi SW 15.0 mph 20.7 mph N/A   Clear
7:23 PM 44.6 °F 37.2 °F 28.4 °F 53% 29.88 in 10.0 mi SSW 17.3 mph 25.3 mph N/A   Clear
7:43 PM 44.6 °F 38.1 °F 28.4 °F 53% 29.88 in 10.0 mi SSW 13.8 mph - N/A   Clear
8:03 PM 42.8 °F 35.4 °F 28.4 °F 57% 29.88 in 10.0 mi SSW 15.0 mph 19.6 mph N/A   Clear
8:23 PM 42.8 °F 35.1 °F 28.4 °F 57% 29.87 in 10.0 mi SSW 16.1 mph 19.6 mph N/A   Clear
8:42 PM 42.8 °F 35.4 °F 28.4 °F 57% 29.86 in 10.0 mi SSW 15.0 mph 19.6 mph N/A   Clear
9:03 PM 41.0 °F 33.9 °F 28.4 °F 61% 29.86 in 10.0 mi SSW 12.7 mph 19.6 mph N/A   Clear
9:23 PM 41.0 °F 33.9 °F 28.4 °F 61% 29.87 in 10.0 mi SSW 12.7 mph - N/A   Clear
9:42 PM 41.0 °F 34.3 °F 28.4 °F 61% 29.86 in 10.0 mi SSW 11.5 mph - N/A   Clear
10:03 PM 41.0 °F 34.3 °F 28.4 °F 61% 29.85 in 10.0 mi SSW 11.5 mph - N/A   Clear
10:23 PM 39.2 °F 32.0 °F 28.4 °F 65% 29.84 in 10.0 mi SSW 11.5 mph 16.1 mph N/A   Clear
10:42 PM 39.2 °F 32.0 °F 28.4 °F 65% 29.84 in 10.0 mi SSW 11.5 mph - N/A   Clear
11:03 PM 39.2 °F 31.6 °F 28.4 °F 65% 29.84 in 10.0 mi SSW 12.7 mph 18.4 mph N/A   Clear
11:23 PM 39.2 °F 31.6 °F 28.4 °F 65% 29.83 in 10.0 mi SSW 12.7 mph 18.4 mph N/A   Clear
11:42 PM 41.0 °F 33.9 °F 28.4 °F 61% 29.83 in 10.0 mi SSW 12.7 mph - N/A   Clear